Лос Анжелес

США     34°05′32″N   117°57′14″W
темп.,
°C
ветер,
м/с
пор.,
м/с
влажн.,
%
обл.,
%
осадки,
мм/ч
давл.,
гПа
погр.,
м
19 апреля, пн
пн1923:00+23в12200 0.0 101529
02:00+21всв11180 0.0 101515
05:00+20в11160 0.0 101513
08:00+21вюв11150 0.0 101678
11:00+27ююз1190 0.0 1016484
14:00+30юз66140 0.0 10141162
17:00+28зюз56160 0.0 1013890
20:00+23ююз33280 0.0 1013350
20 апреля, вт
вт2023:00+19ю22500 0.0 1014225
02:00+18ююз11560 0.0 1013155
05:00+17юз11630 0.0 1012136
08:00+18ююз11620 0.0 1013275
11:00+22ююз33380 0.0 1013805
14:00+24ююз55320 0.0 1011955
17:00+21ю5540100 0.0 1010875
20:00+17ю54645 0.0 1011732
21 апреля, ср
ср2123:00+16ююв446725 0.0 1012793
02:00+15ююв456893 0.0 1011961
05:00+15юв4564100 0.0 10111106
08:00+14ююв4462100 0.0 1012951
11:00+17ююв445074 0.1 10131391
14:00+18ю645283 0.0 10121416
17:00+17ююз535597 0.0 10111403
20:00+16ююз436598 0.0 1012804
22 апреля, чт
чт2223:00+15ю336996 0.0 1013625
02:00+14ю336890 0.0 1012667
05:00+14юз2269100 0.1 1012690
08:00+15ююз226698 0.0 1014686
11:00+18ююз225129 0.0 10141165
14:00+21юз644222 0.0 10131494
17:00+20юз54485 0.5 10111225
20:00+17юз44590 0.0 1013786
23 апреля, пт
пт2323:00+15ююз33662 0.0 1014631
02:00+15ююз227231 0.0 1014565
05:00+14ююв2273100 0.0 1014681
08:00+15ю227080 0.0 1016615
11:00+17ююз325844 0.0 10161014
14:00+20ююз434886 0.0 10151108
17:00+20ююз53480 0.0 10141035
20:00+16ююз43633 0.0 1016661